Location: Eaton
(41.3139°N, 82.0207°W)
Time: 06:48:23
(UTC+00:00)

Cosmos 1825 Rocket - Pass Details

Date: 17 June 2021
Orbit: 603 x 631 km, 82.5° (Epoch: 03 August)

Event Time Altitude Azimuth Distance (km) Brightness Sun altitude
Exits shadow 06:24:03 76° 274° (W) 656 3.5 -24.1°
Maximum altitude 06:24:05 76° 278° (W) 656 3.5 -24.1°
Drops below altitude 10° 06:28:34 10° 5° (N) 2,017 7.2 -23.8°
Sets 06:30:49 0° 7° (N) 2,927 8.4 -23.7°
